Location: Tucson
(32.2217°N, 110.9265°W)
Time: 05:56:09
(UTC-07:00)

S-56A Canister/Altair - Visible Passes

Search period start: 25 October 2021 00:00
Search period end: 04 November 2021 00:00
Orbit: 632 x 2501 km, 38.9° (Epoch: 24 October)

Date Brightness Start Highest point End Pass type
(mag) Time Alt. Az. Time Alt. Az. Time Alt. Az.
25 Oct 10.2 17:40:01 10° WNW 17:54:03 84° SSW 18:09:03 10° ESE visible
25 Oct 10.9 19:46:56 10° WNW 20:00:13 40° SW 20:12:38 10° SSE visible
26 Oct 10.8 19:13:19 10° WNW 19:26:49 45° SW 19:39:58 10° SSE visible
26 Oct 11.7 21:26:57 10° WSW 21:31:23 12° SW 21:35:41 10° SW visible
27 Oct 10.7 18:39:50 10° WNW 18:53:22 50° SW 19:07:08 10° SSE visible
27 Oct 11.6 20:51:00 10° W 20:58:16 15° SW 21:05:15 10° SSW visible
28 Oct 10.7 18:06:29 10° WNW 18:19:53 55° SW 18:34:10 10° SE visible
28 Oct 11.6 20:16:08 10° W 20:25:06 19° SW 20:33:49 10° SSW visible
29 Oct 11.6 19:41:46 10° W 19:51:52 22° SW 20:01:54 10° S visible
30 Oct 11.6 19:07:45 10° W 19:18:34 26° SW 19:29:41 10° S visible
31 Oct 11.5 18:34:00 10° W 18:45:14 30° SW 18:57:12 10° S visible
01 Nov 11.5 18:00:28 10° W 18:11:54 33° SW 18:24:30 10° SSE visible
03 Nov 12.2 19:06:52 10° WSW 19:10:32 11° SW 19:14:16 10° SW visible
